Volver al catálogo

CZ-6A DEB

ActivoSSO
NORAD 55546·DEBRIS·🇨🇳 China

Lanzado Nov 11, 2022 desde Taiyuan Satellite Launch Center

Loading…

Próximos Pases (próximas 24 horas)

TLE

ActualizadoSource: Space-Track

Época: Sep 14, 2026, 14:43 UTC

1 55546U 22151YU  26257.61356726  .00000941  00000-0  24055-3 0  9997
2 55546  98.5981 312.3677 0131318  45.7995 315.3896 14.47879015201949

Sigue CZ-6A DEB en tiempo real con AllMySat

Download on the App Store